Location: Maccacari
(45.1333°N, 11.1333°E)
Time: 03:09:10
(UTC+00:00)

Altair - Pass Details

Date: 28 January 2021
Orbit: 1501 x 1682 km, 47.2° (Epoch: 01 March)

Event Time Altitude Azimuth Distance (km) Brightness Sun altitude
Rises 09:34:08 0° 294° (WNW) 4,938 9.7 21.6°
Reaches altitude 10° 09:37:25 10° 289° (WNW) 3,950 9.3 21.9°
Maximum altitude 09:47:01 50° 219° (SW) 2,053 8.8 22.7°
Drops below altitude 10° 09:56:26 10° 148° (SSE) 3,870 11.5 23.4°
Sets 09:59:38 0° 143° (SE) 4,832 11.4 23.6°
